"Pseudo-MPEC" for ZTF01ZI

Created 2018 Oct 14 3:18:37 UT using Find_Orb

Click here for an explanation of pseudo-MPECs

 
 Astrometry: 
     ZTF01ZI  C2018 10 06.31462501 47 01.22 -09 28 40.1          16.64iUNEOCPI41
     ZTF01ZI  C2018 10 06.33805801 49 00.80 -08 38 10.0          18.73gUNEOCPI41
     ZTF01ZI  C2018 10 06.33840501 49 02.43 -08 37 25.3          18.73gUNEOCPI41
     ZTF01ZI  C2018 10 06.40108201 54 17.09 -06 19 47.0          18.37RUNEOCPI41
     ZTF01ZI  C2018 10 06.40188901 54 21.11 -06 17 59.2          18.43RUNEOCPI41

Station data:
(I41) Palomar Mountain--ZTF  (N33.357340 W116.859780)  US/California. 1.2-m
   f/2.44 Oschin Schmidt + CCD.

Orbital elements:  ZTF01ZI
   Perigee 2018 Oct 5.313351 +/- 0.306 TT =  7:31:13 (JD 2458396.813351)
Epoch 2018 Oct  6.0 TT = JDT 2458397.5                        AutoNEOCP
M 119.89751 +/- 16                  (J2000 equator)
n 174.61240417 +/- 46.7             Peri.  170.90026 +/- 1.2
a 68425.8358 +/- 12157              Node    33.69401 +/- 1.7
e   0.6314432 +/- 0.115             Incl.   43.70473 +/- 1.3
P2968.81m/2.062d           H 33.1   G  0.15   U 15.3  
q 25218.8027 +/- 13268    Q 111632.869 +/- 12943
From 5 observations 2018 Oct. 6 (2.1 hr); mean residual 0".52
Residuals in arcseconds: 
181006 I41  .07-  .02+    181006 I41  .84-  .24-    181006 I41  .73-  .14+    
181006 I41  .91+  .19+    181006 I41  .72+  .13-    

Ephemerides (geocentric):
Date (UTC) HH   RA              Dec         delta   r     elong  mag " sig PA
---- -- -- --  -------------   -----------  ------ ------ -----  --- ---- ---
2018 10 14 03  00 26 29.160   -23 32 16.56   94587 0.9981 146.3 18.5  23d  51
2018 10 14 04  00 36 10.792   -21 45 17.36   97581 0.9981 148.7 18.5  23d  50
2018 10 14 05  00 45 06.302   -20 02 27.27  100261 0.9981 150.9 18.5  22d  50
2018 10 14 06  00 53 24.625   -18 23 09.33  102638 0.9981 153.0 18.5  22d  49
2018 10 14 07  01 01 12.790   -16 46 50.19  104722 0.9982 154.9 18.5  22d  49
2018 10 14 08  01 08 36.446   -15 12 59.73  106519 0.9982 156.6 18.4  22d  48
2018 10 14 09  01 15 40.227   -13 41 10.55  108037 0.9982 158.2 18.4  22d  48
2018 10 14 10  01 22 28.017   -12 10 57.51  109280 0.9982 159.7 18.4  22d  48
2018 10 14 11  01 29 03.142   -10 41 57.18  110254 0.9982 160.9 18.4  22d  48
2018 10 14 12  01 35 28.517   -09 13 47.47  110962 0.9982 162.0 18.4  23d  48
2018 10 14 13  01 41 46.762   -07 46 07.17  111406 0.9982 162.9 18.3  23d  48
2018 10 14 14  01 48 00.293   -06 18 35.56  111587 0.9981 163.6 18.3  24d  48
2018 10 14 15  01 54 11.396   -04 50 52.01  111507 0.9981 164.1 18.3  26d  48
2018 10 14 16  02 00 22.307   -03 22 35.61  111164 0.9981 164.3 18.3  28d  48
2018 10 14 17  02 06 35.271   -01 53 24.75  110558 0.9981 164.2 18.3  30d  48
2018 10 14 18  02 12 52.612   -00 22 56.67  109687 0.9981 163.8 18.3  34d  48
2018 10 14 19  02 19 16.812   +01 09 13.05  108548 0.9981 163.2 18.3  38d  48
2018 10 14 20  02 25 50.594   +02 43 31.06  107137 0.9980 162.3 18.3  46d  48
2018 10 14 21  02 32 37.033   +04 20 26.93  105449 0.9980 161.1 18.3  58d  48
2018 10 14 22  02 39 39.687   +06 00 34.03  103478 0.9980 159.8 18.3  81d  48
2018 10 14 23  02 47 02.785   +07 44 30.50  101216 0.9980 158.1 18.3 137d  48
2018 10 15 00  02 54 51.471   +09 33 00.63   98655 0.9979 156.3 18.3 146d  49
2018 10 15 01  03 03 12.160   +11 26 56.48   95786 0.9979 154.2 18.3 109d  49
2018 10 15 02  03 12 13.049   +13 27 19.96   92595 0.9978 151.8 18.3  93d  50
2018 10 15 03  03 22 04.888   +15 35 25.49   89069 0.9978 149.2 18.3  85d  50
2018 10 15 04  03 33 02.176   +17 52 43.12   85194 0.9977 146.2 18.3  80d  51
2018 10 15 05  03 45 25.078   +20 21 02.14   80951 0.9977 142.8 18.2  78d  52
2018 10 15 06  03 59 42.642   +23 02 34.08   76321 0.9976 139.0 18.2  77d  53
2018 10 15 07  04 16 38.416   +25 59 52.14   71283 0.9976 134.6 18.2  77d  55
2018 10 15 08  04 37 20.761   +29 15 37.75   65816 0.9975 129.4 18.2  79d  57
2018 10 15 09  05 03 42.707   +32 51 44.97   59904 0.9974 123.1 18.1  83d  60
2018 10 15 10  05 39 01.402   +36 46 09.47   53546 0.9973 115.3 18.1  88d  65
2018 10 15 11  06 29 13.323   +40 42 12.44   46780 0.9973 105.2 18.2  96d  73
2018 10 15 12  07 44 26.663   +43 34 28.40   39753 0.9972  91.6 18.3 107d  86
2018 10 15 13  09 35 04.220   +42 00 58.76   32899 0.9971  72.1 18.8 125d 105
2018 10 15 14  11 49 33.665   +29 33 32.50   27357 0.9970  44.0 20?? 152d 125
2018 10 15 15  13 56 57.370   +04 11 20.16   25268 0.9970  15.6 27?? 171d 131
2018 10 15 16  15 53 03.107   -21 48 37.89   27927 0.9970  38.8 21?? 134d 128
2018 10 15 17  17 43 26.615   -37 11 12.54   33741 0.9970  65.4 19.3 108d 115
2018 10 15 18  19 20 07.146   -43 00 19.87   40661 0.9971  83.9 18.7  91d  99
2018 10 15 19  20 35 08.787   -43 41 58.53   47671 0.9971  97.0 18.5  80d  86
2018 10 15 20  21 30 16.475   -42 13 21.25   54391 0.9972 106.7 18.4  72d  77
2018 10 15 21  22 11 01.161   -39 57 49.31   60693 0.9972 114.4 18.4  66d  70
2018 10 15 22  22 42 04.179   -37 29 45.18   66548 0.9973 120.6 18.4  62d  65
2018 10 15 23  23 06 34.597   -35 02 34.20   71958 0.9973 125.8 18.5  59d  62
2018 10 16 00  23 26 33.276   -32 41 09.31   76943 0.9974 130.2 18.5  56d  59
2018 10 16 01  23 43 18.085   -30 26 55.02   81521 0.9974 134.1 18.5  55d  57
2018 10 16 02  23 57 40.531   -28 19 51.48   85715 0.9974 137.6 18.5  54d  55